Location: Newark
(48.8833°N, 0.9236°W)
Time: 03:44:00
(UTC+00:00)

Transit 4A - Pass Details

Date: 28 November 2019
Orbit: 870 x 975 km, 66.8° (Epoch: 14 December)

Event Time Altitude Azimuth Distance (km) Brightness Sun altitude
Exits shadow 05:01:01 56° 260° (W) 1,035 7.8 -24.0°
Maximum altitude 05:01:26 58° 242° (WSW) 1,020 7.8 -23.9°
Drops below altitude 10° 05:07:05 10° 165° (SSE) 2,511 10.4 -23.0°
Sets 05:09:35 0° 161° (SSE) 3,444 11.2 -22.6°
